Wind_Speed
43 43 41 39 35 33 31 29 28 27 26 25 25 24 23 22 21 20 20 20 19 19 18 18 18 17 17 16 16 16 15 15 15 15 17 18 20 21 22 23 24 26 27 28 30 31 32 33 33 34 34 36 37 39 40 41 42 43 44 45 46 47 48 49 49 49 50 50 48 46 44 43 40 38 36 34 32 29 27 25 24 24 25 26 27
45 44 42 40 37 34 32 31 30 29 29 28 26 25 24 23 22 22 22 22 22 21 21 20 20 20 19 19 18 18 17 17 17 17 19 21 23 24 25 26 26 28 29 30 32 33 33 34 35 36 36 38 39 41 42 43 45 45 46 47 48 49 50 50 50 50 50 50 49 46 43 41 39 37 34 31 29 27 26 24 23 23 24 25 26
46 46 44 41 38 36 35 33 32 31 30 28 27 26 25 24 23 22 23 23 23 23 23 23 23 22 22 22 21 20 20 20 19 20 22 24 26 27 28 29 30 30 31 32 34 35 35 35 36 38 39 40 41 43 44 46 47 48 49 50 51 51 52 52 52 51 49 48 46 44 42 39 36 34 32 29 27 25 24 23 22 22 22 24 25
47 48 46 43 41 40 38 36 34 32 30 29 27 26 25 24 24 24 24 24 24 25 25 26 25 25 25 25 24 24 23 23 23 23 25 27 29 30 31 32 34 34 34 34 35 36 36 37 38 40 41 42 44 45 47 49 51 52 53 53 54 54 54 53 51 49 46 43 41 40 39 37 35 33 31 29 26 23 21 21 22 22 22 23 24
49 49 47 45 44 42 40 38 35 33 32 29 28 27 26 26 26 26 26 26 26 26 27 27 28 28 28 27 27 27 26 26 26 27 28 29 31 33 34 35 36 37 37 36 36 37 38 39 41 42 44 45 46 48 51 52 54 55 56 56 55 54 52 49 46 44 42 41 40 38 37 36 34 32 29 28 26 23 20 19 20 21 22 23 24
49 50 49 47 46 44 42 40 38 35 33 31 29 29 29 29 29 28 28 28 28 28 28 29 29 30 30 30 29 29 29 28 29 30 31 32 33 35 36 38 38 38 38 38 38 39 40 42 43 45 47 48 50 52 54 55 57 57 56 54 52 50 47 46 43 41 40 39 39 38 36 34 33 31 28 26 25 22 18 18 18 19 20 22 23
50 50 49 49 47 46 44 42 39 37 34 32 31 31 31 31 30 30 30 30 30 30 30 30 30 31 31 31 31 31 31 31 32 33 34 34 35 37 38 39 40 40 39 40 40 42 43 45 47 48 50 52 54 55 56 56 56 54 52 49 47 45 44 44 43 42 40 39 38 38 37 35 33 30 27 24 22 20 17 16 17 18 19 19 20
49 50 50 50 49 47 45 43 40 38 36 34 33 33 33 33 32 32 33 33 32 32 32 32 32 32 32 33 33 33 34 34 34 35 35 36 37 39 40 41 41 41 41 42 43 44 46 48 50 52 53 54 55 56 55 52 50 48 47 45 44 44 43 43 43 42 40 38 37 37 37 35 33 29 25 22 20 18 16 16 17 18 18 18 19
48 49 50 51 50 48 45 44 42 40 38 37 36 35 35 34 34 35 35 35 35 34 34 34 33 33 34 35 35 35 36 36 36 36 37 38 39 40 42 42 42 43 43 44 45 47 49 51 53 54 55 55 54 52 49 46 44 44 44 44 43 43 42 42 41 41 40 38 36 35 36 35 32 28 24 20 18 16 15 16 17 18 19 20 20
48 49 50 51 50 49 46 45 44 42 41 39 38 37 37 37 37 36 37 37 36 36 36 35 34 34 35 36 36 37 37 36 36 37 38 39 41 42 43 43 43 44 45 46 48 50 52 53 54 55 54 51 49 46 43 41 41 42 43 43 43 42 42 41 40 40 40 39 37 35 34 33 31 28 23 19 17 15 15 16 17 18 21 22 23
49 49 50 50 51 50 48 47 45 44 43 41 40 39 38 38 38 38 38 38 37 37 37 36 36 36 36 37 37 37 37 37 38 38 40 41 42 43 43 44 44 45 47 49 50 52 53 54 53 51 48 45 43 41 40 39 40 41 42 42 42 42 41 41 41 40 40 39 37 35 32 30 29 26 22 18 16 15 16 17 17 18 21 24 26
48 49 50 50 51 51 50 48 46 46 45 43 41 40 39 40 40 40 39 38 37 38 38 37 37 37 37 37 37 37 38 38 39 40 40 41 41 43 44 45 46 48 50 51 52 52 52 50 48 45 43 41 40 38 38 38 39 40 41 41 41 41 40 40 41 41 40 40 39 35 31 28 26 24 20 18 16 16 16 17 18 19 20 23 27
47 49 49 50 51 51 50 49 48 47 46 44 42 41 40 41 41 41 39 38 38 38 38 37 37 37 38 38 38 38 39 40 40 41 41 41 41 44 46 48 49 50 51 52 51 49 46 44 42 40 40 39 38 37 37 37 38 38 39 39 38 38 39 40 41 42 41 40 38 34 30 26 25 23 20 18 17 17 16 17 19 20 21 23 27
46 48 49 50 50 50 50 50 49 48 46 44 42 41 41 42 42 41 40 39 39 38 38 38 39 39 39 39 39 40 40 40 41 41 41 41 43 45 48 50 52 52 51 49 46 43 41 39 38 37 37 36 36 36 37 37 37 37 37 37 37 37 37 38 40 42 42 39 36 32 28 25 24 23 22 20 18 18 17 18 20 22 22 23 26
44 46 48 50 51 51 50 49 48 47 45 44 43 42 43 43 43 42 40 40 40 39 39 40 40 40 40 40 41 41 41 41 42 42 42 43 45 47 50 51 51 50 47 44 41 39 37 37 36 36 36 35 34 35 37 37 37 37 38 38 38 38 37 36 37 39 39 37 34 30 26 24 24 24 23 22 20 19 19 20 22 23 23 24 25
41 44 46 48 49 50 50 48 47 47 45 44 44 44 44 43 42 42 41 40 40 40 41 41 41 41 41 41 42 42 41 42 43 44 45 46 47 49 49 49 47 44 41 39 37 37 36 36 36 36 36 36 35 35 37 37 37 38 39 40 40 40 39 36 35 34 32 32 31 29 26 24 23 23 23 23 23 21 21 22 23 24 25 25 26
39 40 42 44 46 48 48 48 47 46 46 45 45 44 44 43 42 41 41 42 42 42 42 42 41 41 41 42 43 43 43 44 45 46 47 48 49 49 46 43 41 38 36 35 36 37 36 36 36 37 38 38 37 38 39 39 39 39 40 41 41 41 40 36 32 29 29 30 30 29 28 26 23 23 23 23 23 23 23 24 25 26 26 27 27
41 40 41 42 43 45 46 46 47 46 45 45 45 44 44 43 42 42 42 42 42 42 42 42 42 42 42 43 44 45 46 47 48 49 50 49 48 46 42 38 35 33 32 33 35 36 36 36 36 37 39 39 40 42 42 42 42 41 42 43 43 42 39 36 31 29 30 33 31 29 30 29 25 23 23 23 24 24 25 26 27 27 27 28 29
44 43 42 41 42 43 44 45 45 45 45 45 45 44 44 43 43 42 42 42 42 42 42 42 43 43 44 45 46 47 48 49 49 49 48 46 44 40 37 35 33 31 31 33 34 36 37 38 38 39 40 41 43 44 45 45 45 44 45 45 46 44 39 35 33 32 31 33 32 31 34 33 29 26 25 24 25 25 26 27 28 29 29 30 33
46 45 44 44 43 43 43 44 44 44 44 44 44 44 44 43 43 43 42 42 42 42 43 44 44 45 46 47 48 49 49 49 48 46 44 41 37 34 33 33 33 32 32 34 35 36 37 38 39 40 42 43 45 46 47 47 47 46 47 46 47 47 42 36 34 35 35 35 34 34 37 37 34 31 29 28 27 26 27 28 29 30 32 34 37
49 48 47 47 46 45 45 44 44 44 44 44 44 44 44 44 43 43 43 43 43 44 45 46 47 48 48 49 49 49 48 46 44 41 38 35 33 31 32 33 33 33 34 36 36 37 37 38 39 41 42 44 46 47 49 50 49 49 50 50 50 51 47 41 36 35 37 39 38 38 38 38 38 38 36 34 34 33 33 33 33 35 37 39 41
52 51 51 50 50 49 48 47 46 45 45 45 45 45 45 45 45 45 45 45 46 47 48 48 49 49 49 49 48 46 44 42 39 36 34 32 31 32 33 33 33 33 35 37 38 38 38 39 41 42 44 45 47 48 51 53 53 54 55 54 53 53 50 45 39 35 35 39 41 43 44 43 43 45 43 41 41 43 44 43 43 43 44 45 47
54 53 53 53 52 51 50 49 48 48 47 46 46 46 47 47 47 47 47 48 48 49 49 49 49 49 48 46 44 42 39 37 35 34 33 32 33 34 35 35 34 34 36 39 40 40 40 41 42 45 46 47 48 49 51 55 56 57 58 57 55 53 50 44 40 37 36 37 40 43 47 49 49 48 46 45 44 44 45 46 48 49 49 50 52
54 53 53 53 52 52 51 50 50 50 49 48 48 48 48 48 48 48 48 48 48 48 48 47 46 44 42 40 39 37 36 35 34 34 34 34 35 36 36 36 36 36 38 41 42 42 41 42 44 47 49 50 51 51 53 55 57 57 58 56 55 53 48 43 41 41 40 39 40 43 47 51 52 49 44 43 44 44 44 45 46 49 51 52 52
55 54 53 53 52 51 51 51 51 50 50 50 49 49 48 48 48 47 47 47 46 45 44 42 40 39 37 37 36 36 35 35 35 35 35 36 37 37 38 38 39 39 40 43 44 44 43 44 46 48 50 52 53 53 54 56 56 57 58 56 54 52 47 44 43 43 44 45 45 43 43 47 49 48 45 44 45 47 49 48 46 46 48 49 47
53 54 54 53 53 52 52 51 51 50 49 49 48 47 47 46 46 45 45 44 42 40 39 38 37 37 37 37 37 36 37 37 36 36 37 39 40 40 40 41 42 43 43 45 46 46 46 46 48 50 51 52 54 54 55 56 57 58 58 57 55 52 50 49 47 45 47 50 50 46 44 44 44 44 44 42 43 46 49 50 48 45 44 44 44
48 50 51 52 52 52 52 51 51 50 49 47 45 44 44 44 43 42 41 40 39 38 38 38 37 37 37 37 38 38 38 38 37 37 39 41 42 42 43 44 45 46 46 48 48 48 48 49 50 51 52 53 55 56 57 57 58 59 60 60 59 56 55 54 51 48 49 51 48 46 46 45 41 39 39 41 44 47 50 52 51 45 41 42 43
44 46 47 48 49 49 49 49 49 48 47 45 44 43 42 42 41 40 39 39 39 39 39 39 39 39 39 39 40 40 39 39 39 39 41 42 43 44 45 46 47 48 49 49 50 50 51 52 52 53 53 54 55 56 57 58 58 59 60 61 62 61 60 59 56 53 51 48 44 45 48 50 47 44 44 49 54 57 58 57 54 48 44 43 43
42 43 44 44 45 46 46 45 44 44 44 44 43 42 41 40 40 39 39 40 40 41 41 40 40 41 41 41 41 41 41 41 41 42 42 43 44 46 47 48 49 50 51 51 52 52 53 54 55 55 56 55 56 57 57 58 58 59 59 60 61 61 62 61 60 58 54 48 43 43 49 53 50 47 50 55 59 61 62 60 57 52 50 49 45
43 43 43 44 44 45 45 44 43 43 43 43 42 41 41 41 40 39 40 41 41 42 42 42 42 42 42 42 43 43 43 44 44 44 45 45 46 47 49 51 52 53 53 53 54 54 55 55 56 57 57 57 57 58 58 58 59 60 60 61 62 63 63 62 62 60 56 50 44 42 44 46 46 47 50 53 55 58 60 59 56 54 53 53 51
45 45 45 45 45 45 45 44 44 44 44 43 42 42 42 42 41 41 42 43 43 43 44 44 44 44 44 45 46 46 46 47 47 47 47 48 48 50 51 53 55 56 56 57 57 57 57 57 58 59 58 58 58 59 60 60 60 61 61 62 63 64 64 65 65 63 58 54 49 44 40 39 40 43 46 48 52 59 63 62 59 57 57 57 59
47 47 46 46 46 46 46 45 45 46 45 45 44 44 44 44 44 44 45 45 45 45 45 46 47 47 48 48 49 49 49 49 50 50 50 51 52 53 54 56 58 58 59 59 60 60 60 60 60 60 60 60 60 61 62 62 62 62 61 61 63 64 65 65 66 65 62 57 53 48 43 39 37 39 44 48 53 60 66 67 65 63 60 58 60
49 48 47 47 47 48 48 48 48 49 48 47 47 47 47 47 47 47 48 48 48 48 48 49 50 51 51 52 52 52 53 53 53 53 54 54 55 57 58 59 60 61 61 62 62 63 63 63 63 62 62 61 62 63 63 64 64 63 63 62 63 64 64 64 65 65 64 61 56 52 48 43 41 42 48 53 55 58 63 67 67 65 61 59 60
52 51 50 50 51 51 51 51 52 52 51 50 50 51 50 50 50 50 51 51 51 52 52 53 54 54 55 55 55 56 56 56 56 56 57 58 59 60 61 62 63 63 64 65 65 66 66 66 65 65 64 63 64 64 64 65 65 65 64 64 63 63 63 64 64 65 64 62 58 54 50 45 43 44 47 52 56 58 61 63 64 64 63 64 65
55 55 54 54 54 54 53 53 54 54 54 54 53 53 54 53 53 53 54 55 55 55 55 56 56 57 58 58 58 59 59 59 60 60 61 62 62 63 64 65 65 66 66 67 68 69 69 68 68 67 66 65 65 66 66 67 67 66 65 64 63 62 62 62 63 65 66 64 61 59 54 46 43 45 47 48 50 52 54 56 61 65 67 69 68
59 59 58 57 57 56 56 56 56 56 57 57 57 56 57 57 57 57 57 58 58 58 58 59 59 60 61 61 61 61 62 62 63 64 64 65 66 66 67 67 68 69 70 70 71 72 72 71 70 69 69 69 69 69 69 68 68 68 67 65 64 62 62 61 61 64 68 67 65 64 59 48 42 45 47 46 45 47 49 51 54 56 59 62 62
63 62 61 61 60 60 59 59 59 59 60 60 60 60 60 60 60 60 61 61 61 62 62 63 64 64 64 64 65 65 66 66 67 67 68 69 69 69 70 70 71 72 73 74 75 75 75 75 74 73 73 72 72 71 70 69 69 68 67 66 65 62 61 60 61 64 68 67 64 63 59 49 41 42 44 45 44 42 43 46 48 47 48 51 53
67 66 65 65 65 65 64 64 63 63 64 64 65 65 65 65 65 65 65 65 65 66 66 67 68 68 68 68 69 69 69 69 70 70 71 72 72 72 72 73 74 75 76 77 78 78 78 78 77 77 76 76 74 73 71 70 70 68 67 66 64 61 60 60 62 66 69 67 62 58 54 46 40 39 41 42 40 36 34 35 35 34 35 39 41
70 70 69 69 68 68 68 68 68 68 69 70 70 70 69 69 69 69 69 69 69 69 69 70 70 71 71 72 72 73 73 73 73 73 74 74 75 75 75 76 77 78 79 80 81 81 81 81 81 80 80 78 77 75 73 71 69 68 67 65 62 59 59 61 63 66 66 64 59 54 47 41 38 38 38 36 35 34 33 31 26 24 26 31 36
73 73 73 72 71 71 71 72 72 73 73 73 73 73 73 73 73 73 72 72 72 71 72 72 73 73 74 75 75 76 76 76 76 76 76 77 78 78 79 79 80 81 82 83 83 84 84 84 84 83 82 81 78 76 74 72 70 68 67 66 62 58 57 59 62 63 62 59 54 48 41 37 36 35 35 33 31 31 30 29 27 24 25 32 41
75 75 74 74 73 74 74 74 75 76 76 76 75 75 76 76 76 75 75 75 75 75 75 75 76 76 76 77 78 78 78 78 78 79 80 80 81 82 82 83 83 83 84 85 86 86 87 87 86 86 84 83 81 78 76 74 71 68 67 65 60 55 53 54 56 59 59 55 48 40 34 33 33 34 33 32 29 25 23 24 25 25 26 33 42
77 76 76 75 75 76 76 76 77 77 77 77 77 77 78 78 78 78 78 78 78 78 78 78 79 79 79 80 81 81 81 81 81 82 82 83 84 85 86 86 86 86 87 88 88 89 89 89 88 87 86 84 83 81 80 78 75 73 70 66 60 56 53 52 53 57 57 51 41 33 32 31 30 29 29 28 27 26 25 26 29 31 33 35 38
79 79 79 78 78 78 78 78 79 79 79 80 80 80 81 81 81 82 82 81 81 81 81 81 82 82 82 83 83 84 84 84 84 85 85 86 87 88 88 88 89 90 90 91 91 91 91 91 90 89 87 86 84 83 81 80 79 76 73 68 64 60 56 51 52 56 58 52 38 29 31 31 28 25 25 25 28 29 30 32 35 35 33 31 30
82 82 82 82 82 82 82 82 83 83 83 83 84 84 84 84 84 84 84 84 84 84 85 85 85 85 85 85 86 86 87 87 87 88 89 89 90 90 90 91 91 92 94 94 94 93 93 93 91 90 88 87 86 84 83 82 80 78 73 69 66 63 57 50 48 51 55 54 41 29 32 33 30 28 27 28 30 33 34 35 35 31 26 27 32
83 84 84 84 85 85 86 86 86 87 87 87 87 87 87 87 87 87 87 87 88 88 88 88 88 88 88 88 89 89 89 90 90 91 92 92 93 93 93 94 94 96 96 96 96 95 95 95 93 92 90 89 87 86 84 83 82 78 74 70 67 63 57 50 46 44 48 51 43 34 36 36 33 32 31 31 32 32 34 36 34 28 24 29 37
86 86 86 86 86 87 88 88 89 89 89 90 90 90 90 90 91 90 90 90 90 91 91 91 91 91 92 92 92 92 92 93 93 93 94 95 95 96 96 97 98 98 99 99 97 97 97 96 95 94 92 91 90 88 87 85 82 79 76 73 68 64 59 52 44 41 44 48 42 35 39 40 37 36 36 36 37 37 37 36 32 26 25 31 39
89 89 89 89 89 89 90 90 90 91 91 92 92 93 93 93 93 93 93 93 94 94 94 95 95 95 96 96 96 96 96 95 96 96 97 98 98 99 99 100 101 101 101 101 100 99 98 97 96 96 95 94 92 90 88 85 82 80 79 77 73 69 64 55 46 41 43 46 41 34 40 43 39 37 37 38 39 41 40 33 28 28 31 38 48
92 92 93 93 93 93 93 93 93 94 94 95 95 96 96 96 96 96 97 97 97 97 98 98 98 98 99 99 99 99 99 99 100 100 101 101 101 102 102 102 102 103 103 102 102 102 101 99 98 97 96 95 93 91 88 86 83 81 80 79 78 75 70 61 52 44 41 40 37 34 40 45 42 39 39 39 37 35 32 28 29 37 46 51 58
94 94 94 94 95 95 95 95 95 96 97 97 98 98 98 98 98 98 98 99 99 99 100 100 100 101 101 102 102 102 102 103 103 104 104 104 104 104 104 104 104 104 104 104 103 103 102 102 100 99 97 95 93 90 87 85 83 82 81 80 80 79 75 68 61 52 43 38 37 36 40 48 48 45 45 46 41 35 32 34 38 46 57 64 68
97 97 97 97 97 97 97 98 97 98 98 98 98 99 99 99 100 100 100 101 102 102 103 103 104 104 105 105 105 106 106 106 107 107 107 107 106 106 105 105 105 105 105 105 104 104 103 102 101 99 97 94 92 89 87 85 84 82 81 80 80 80 78 75 70 61 51 42 37 35 38 46 53 52 51 51 49 43 41 46 50 55 63 71 75
100 100 101 101 101 101 101 101 102 102 102 103 103 103 103 103 104 104 105 105 106 106 106 107 107 108 108 108 109 109 110 110 110 110 109 108 108 107 106 106 107 107 107 106 105 104 103 102 100 98 96 94 92 90 88 87 85 84 83 81 80 81 81 80 78 73 65 55 45 38 37 42 52 57 57 57 56 52 50 54 59 63 68 75 79
Wind_Direction
221 221 221 218 214 211 210 212 215 218 220 222 225 228 232 235 239 243 246 247 248 249 248 246 245 247 250 255 260 266 272 279 286 295 303 307 310 313 314 315 315 314 314 314 314 315 317 318 318 319 319 320 320 320 321 322 323 323 323 324 323 323 322 321 321 320 320 319 318 317 316 315 315 315 314 312 310 309 309 306 301 298 300 305 311
226 226 224 221 217 215 213 214 217 221 223 225 227 230 233 236 240 244 248 251 253 255 255 255 253 255 257 260 263 266 271 279 287 296 303 308 309 311 312 313 313 313 313 313 313 315 316 316 317 318 318 319 319 320 320 321 321 321 321 320 320 319 318 318 317 317 317 316 315 315 314 313 314 313 312 310 307 306 305 302 297 294 296 301 308
230 229 226 223 220 217 216 216 219 223 225 227 228 229 231 235 239 243 248 252 255 257 259 260 260 260 263 267 270 273 277 282 288 295 302 305 307 308 309 311 313 313 313 313 313 314 315 316 316 317 318 318 319 319 319 319 318 318 317 317 317 316 316 315 315 315 315 315 314 314 314 314 314 313 311 309 306 304 302 297 292 290 292 299 306
232 230 228 225 221 220 219 219 221 223 225 227 227 229 231 235 239 244 248 252 256 258 259 260 260 260 262 267 271 275 278 283 288 294 298 301 303 305 308 311 313 313 313 313 313 314 314 315 316 316 316 317 317 317 316 316 316 316 316 316 316 315 314 315 315 315 316 315 314 314 314 314 315 314 312 308 304 300 295 290 286 286 289 296 304
232 231 228 224 222 221 220 220 221 222 223 225 227 230 234 238 242 245 248 251 255 257 259 260 260 260 261 264 268 273 277 282 287 291 294 297 300 304 308 311 312 313 313 312 312 313 313 314 314 315 315 315 315 315 315 315 315 315 315 315 315 314 315 316 317 317 317 316 315 315 314 315 314 314 311 307 302 296 288 282 280 282 286 294 304
230 230 228 225 224 223 222 221 221 221 222 224 228 233 236 240 243 246 249 252 255 258 260 261 261 261 261 263 267 272 277 281 284 286 290 294 299 303 307 309 310 310 311 311 311 312 313 313 313 313 313 313 314 314 314 314 314 314 314 314 315 316 317 318 319 319 318 317 317 316 316 315 315 314 312 306 299 291 282 277 276 278 283 292 302
227 228 227 226 225 224 224 223 222 222 223 226 231 236 239 241 244 247 251 254 257 260 262 263 264 264 265 266 268 272 275 278 280 284 288 294 299 303 305 306 307 308 309 310 311 312 312 312 312 312 312 313 313 313 313 313 313 314 315 315 316 318 320 321 321 320 320 319 318 317 317 316 315 315 312 306 296 287 278 275 277 281 287 295 303
222 226 227 227 226 226 225 224 224 224 226 229 233 237 241 243 245 249 252 256 259 261 263 264 266 267 268 268 269 272 274 276 280 284 289 294 298 301 303 304 305 307 309 310 311 311 311 310 310 311 311 312 312 312 313 314 315 315 316 318 319 322 324 324 322 321 321 320 319 318 316 316 316 314 311 304 293 282 275 277 282 289 296 304 309
218 223 226 227 227 227 226 225 225 227 229 232 236 240 243 245 247 250 254 257 259 261 263 265 267 268 269 269 270 272 274 278 283 287 290 294 296 299 302 303 305 307 309 310 310 309 309 309 309 309 310 311 311 312 314 316 317 318 319 320 322 324 326 326 324 322 321 320 320 319 317 315 315 313 310 302 289 277 273 278 287 297 305 311 316
216 219 223 227 228 228 228 227 228 229 231 235 239 242 245 248 249 251 254 257 259 261 263 265 267 269 270 271 272 274 277 281 284 287 290 293 297 299 301 303 305 306 307 307 307 307 307 308 308 308 309 310 311 313 316 318 320 320 320 322 324 326 327 326 324 322 321 320 321 320 318 315 314 312 310 301 286 273 271 278 289 301 310 316 319
216 218 221 225 227 228 229 229 230 231 234 236 240 243 246 249 251 252 254 257 260 262 264 266 268 271 272 274 275 277 279 281 284 286 290 294 297 299 300 302 303 304 304 304 305 306 306 307 307 308 309 310 313 316 320 321 322 322 322 323 324 326 326 325 323 321 321 321 320 319 318 315 312 311 309 299 281 267 269 278 289 302 312 318 321
218 219 221 224 227 228 229 231 232 234 236 239 241 244 247 249 251 253 255 258 260 262 264 267 270 273 274 275 276 277 279 281 284 288 291 294 296 298 299 300 301 302 302 303 304 305 306 306 307 308 310 313 317 321 323 323 324 324 324 324 325 325 324 324 321 320 321 321 319 317 316 312 309 309 306 293 273 262 269 282 292 301 311 317 321
223 222 222 224 226 228 230 232 234 236 239 241 243 244 246 249 251 254 256 259 260 263 266 269 271 272 273 275 276 278 280 283 286 289 291 293 295 297 297 299 299 300 301 303 304 305 305 306 307 310 314 318 322 324 324 325 327 326 325 326 326 324 324 323 322 322 322 321 318 316 313 310 308 308 305 290 270 262 273 290 299 304 310 316 320
227 226 226 226 228 229 231 234 236 238 240 242 243 244 246 249 252 255 257 259 261 264 267 269 270 271 273 276 278 279 282 284 286 288 291 293 294 295 296 297 298 299 301 303 304 304 305 307 310 313 317 320 323 323 323 325 326 325 325 325 326 326 324 323 324 325 323 320 317 316 314 312 309 308 306 295 277 267 276 293 304 308 310 313 318
230 230 229 229 230 231 233 235 237 239 241 242 243 244 246 249 253 255 257 260 262 264 265 267 269 272 275 277 278 280 283 285 287 288 290 292 293 294 295 296 297 299 301 303 304 305 307 310 313 315 317 319 322 321 321 323 324 323 323 324 325 326 325 325 328 327 323 321 321 320 318 314 310 309 307 300 286 274 277 290 302 309 309 309 314
234 233 233 233 233 233 234 236 238 240 242 243 244 245 248 250 253 256 258 260 261 263 265 267 270 273 275 277 279 281 283 284 286 288 290 291 292 293 294 295 297 299 302 304 306 307 310 312 314 315 317 319 321 320 319 321 322 322 323 323 324 325 324 327 331 328 326 328 329 326 323 317 311 308 305 299 291 281 278 285 295 302 304 306 311
239 237 236 236 236 236 237 238 239 240 242 244 246 247 249 251 253 256 258 260 262 264 267 269 271 272 275 277 280 282 283 284 286 287 289 291 291 292 293 294 296 299 303 306 307 308 310 312 313 316 317 320 321 319 318 320 321 321 322 322 323 323 324 327 329 327 328 332 332 330 326 319 310 306 300 295 291 286 282 283 287 292 296 300 305
242 241 240 239 238 239 239 239 240 241 243 245 247 249 250 252 254 256 258 261 263 265 268 270 271 273 275 277 279 281 282 284 286 288 290 291 292 292 293 293 295 299 303 305 305 306 308 310 312 315 317 318 319 317 318 319 320 321 321 321 321 322 322 323 320 318 321 323 325 329 327 318 307 301 297 292 289 286 283 281 281 284 290 295 299
242 243 243 242 241 241 241 241 242 242 244 246 248 249 251 253 255 256 258 260 263 265 267 269 271 273 275 276 278 280 282 284 286 288 289 290 291 292 294 296 298 300 301 301 302 304 306 309 312 315 316 316 316 315 316 317 318 319 319 319 319 318 318 317 310 306 309 312 316 323 326 319 308 297 292 291 289 286 285 285 285 286 289 292 295
242 243 244 244 243 243 243 243 243 244 244 246 248 250 251 253 255 256 258 260 262 264 266 268 270 272 274 276 278 280 282 284 285 286 287 287 289 292 294 295 297 298 298 297 298 301 304 308 311 313 314 314 314 314 315 315 317 318 317 317 316 314 315 314 307 299 297 299 305 315 321 322 315 302 292 289 289 288 287 288 289 291 293 295 296
243 242 243 243 244 244 245 245 245 245 246 247 249 251 252 254 256 257 259 260 262 264 266 268 270 272 274 276 278 280 281 282 282 282 283 285 287 289 289 290 291 293 294 295 298 301 304 308 310 311 313 312 312 313 314 314 315 315 314 313 313 311 311 311 308 300 294 291 293 301 310 318 319 311 298 289 286 286 286 287 289 291 295 297 298
242 242 243 243 244 244 245 246 247 248 249 250 251 253 254 255 257 258 259 261 262 264 266 268 270 272 274 276 277 278 278 278 279 280 281 283 285 284 284 285 287 290 293 296 299 302 306 309 311 312 312 311 312 313 313 313 313 312 312 312 312 312 311 309 307 303 298 294 290 290 294 303 311 311 304 295 288 282 281 283 287 292 295 296 296
241 242 243 243 244 245 246 247 248 249 251 252 253 254 255 257 258 259 261 262 264 266 267 269 271 272 272 273 274 274 274 275 277 279 281 282 282 282 283 286 289 293 296 299 301 304 308 311 313 312 311 311 312 314 313 312 312 312 312 312 313 313 313 310 307 305 303 299 294 289 287 291 299 304 303 301 299 292 286 285 287 290 293 294 295
242 243 244 244 245 246 246 248 249 251 252 253 254 256 257 258 259 260 262 263 264 265 266 267 268 268 269 270 270 271 272 274 276 278 280 281 281 282 285 288 292 295 297 300 302 306 310 313 313 312 311 312 313 314 313 313 313 314 314 313 312 313 314 314 314 313 312 308 301 293 288 288 293 298 298 298 301 301 297 294 290 288 289 291 293
243 244 244 245 246 246 247 248 250 251 253 254 255 256 257 258 258 259 260 261 261 262 262 263 263 264 265 266 267 269 271 273 275 278 280 281 282 285 289 292 294 296 299 301 304 307 311 312 311 311 311 312 313 313 313 313 314 314 315 314 313 314 316 318 320 321 320 318 311 304 296 292 294 298 297 294 295 296 295 294 292 290 291 294 295
242 243 243 244 245 247 248 248 249 250 252 252 253 254 254 254 255 255 256 256 257 257 257 258 258 260 262 264 265 267 269 271 275 278 281 283 286 290 292 295 297 299 301 303 305 308 310 310 310 310 311 312 312 312 313 313 313 314 315 314 313 313 314 318 322 322 319 316 312 309 305 299 297 300 302 302 303 301 299 298 297 295 296 298 297
241 242 243 243 244 245 246 247 247 247 248 248 248 248 248 248 250 251 252 252 253 253 253 254 256 259 262 264 266 267 269 271 275 278 281 285 288 292 294 297 299 300 302 303 305 307 309 309 309 310 310 310 311 312 313 314 314 315 315 315 313 312 311 314 318 318 314 312 312 314 312 305 300 303 307 308 308 306 304 305 306 303 300 299 298
239 241 242 242 242 243 244 244 245 245 244 242 241 241 243 244 245 247 249 249 250 251 252 255 257 260 263 265 267 269 271 274 276 278 280 284 288 291 294 296 298 299 300 302 304 306 307 307 308 309 309 309 310 311 312 313 313 314 313 312 312 311 310 311 312 311 310 313 319 320 312 302 297 297 297 295 295 293 293 298 303 303 300 299 298
238 239 241 241 241 240 240 240 240 240 240 239 238 238 240 241 243 245 248 249 251 252 255 257 259 261 263 266 269 271 273 275 277 278 281 284 287 291 293 295 296 297 299 301 303 305 306 307 307 308 308 309 310 311 311 312 312 312 311 310 310 309 308 308 308 309 311 316 320 313 300 292 289 286 283 281 280 281 283 288 292 293 293 295 295
239 239 240 240 241 240 239 238 236 237 238 239 239 240 241 243 244 246 249 251 253 255 257 259 261 263 266 268 270 272 274 275 278 280 282 285 287 290 292 294 295 296 297 299 302 303 304 306 307 307 308 309 310 310 310 311 311 311 310 310 310 308 307 306 307 308 310 314 314 305 290 282 280 280 279 278 280 282 284 287 289 286 283 285 287
238 239 239 240 240 241 241 239 237 236 237 239 241 243 244 245 246 248 250 253 254 256 258 261 263 266 268 270 272 273 275 277 279 281 283 285 287 289 291 292 293 295 297 299 301 302 304 305 306 306 308 309 310 310 310 310 311 311 311 311 310 308 307 307 306 307 308 310 311 305 291 276 270 273 276 278 281 282 282 283 285 282 277 277 279
238 239 240 240 241 241 241 240 239 238 238 240 242 245 247 248 249 250 253 255 257 259 261 263 265 267 269 271 273 275 277 278 280 282 284 285 286 288 289 290 292 294 296 299 301 302 303 305 305 307 308 309 310 310 310 311 311 310 311 310 309 308 306 305 304 305 307 308 310 308 296 277 261 258 261 264 269 273 274 273 275 275 274 275 275
239 240 241 241 242 242 241 240 240 241 241 242 244 247 250 252 253 255 257 259 261 263 264 266 267 268 270 272 274 276 277 279 281 283 284 285 286 287 288 289 291 293 295 298 300 301 303 304 305 307 308 309 310 310 311 311 311 311 310 310 308 306 304 303 303 303 304 306 308 308 299 281 262 253 253 252 253 259 264 266 268 270 271 271 270
243 243 243 243 243 243 242 242 242 244 245 245 247 250 252 254 256 258 260 261 263 264 266 268 269 271 272 273 275 276 278 280 282 283 284 284 285 286 287 289 291 293 295 297 299 300 302 303 305 307 308 308 309 310 310 310 310 310 309 308 306 304 302 301 301 301 302 304 306 307 301 284 265 256 253 250 248 251 255 259 264 266 267 268 270
245 246 245 245 244 244 244 245 245 247 248 249 250 252 253 255 257 259 261 263 264 266 268 269 271 272 273 274 276 277 279 280 281 282 283 284 285 286 287 289 291 293 295 297 298 300 301 303 305 306 307 308 309 310 310 310 309 309 308 305 303 302 300 300 301 301 303 305 307 307 303 288 266 255 253 253 252 253 254 257 260 262 264 267 270
245 247 248 248 247 247 247 247 248 250 251 252 253 254 255 257 258 260 262 264 266 267 269 270 271 273 274 275 277 278 279 280 281 282 283 284 285 286 288 290 292 294 296 297 298 300 302 303 305 306 307 308 309 310 310 310 309 309 307 305 303 302 301 301 301 301 302 304 306 305 303 292 271 257 254 254 255 258 260 262 263 263 264 267 270
245 247 248 250 250 250 250 251 251 252 254 255 257 258 258 259 261 262 264 265 267 268 270 271 272 273 274 276 277 278 279 280 281 282 283 284 285 287 289 291 293 295 296 298 299 300 302 303 305 306 308 308 309 309 309 310 309 308 307 305 303 302 301 300 299 298 298 300 302 302 299 291 274 259 255 255 256 259 263 266 268 269 269 269 269
245 246 248 249 250 251 252 252 254 255 256 258 259 260 261 262 263 264 265 266 267 268 270 272 273 274 275 276 277 279 280 281 282 283 284 285 287 288 290 292 294 295 297 298 299 301 302 304 305 306 307 307 308 308 309 309 308 307 306 304 302 302 300 299 297 297 297 299 301 299 294 286 274 263 257 253 252 255 260 265 269 273 273 272 272
245 246 247 248 249 250 252 253 255 256 257 258 259 260 262 263 264 264 265 266 267 269 270 272 274 275 276 277 278 279 280 281 282 284 285 286 288 290 291 292 294 296 297 298 299 301 302 303 304 305 306 306 307 307 307 307 307 306 304 302 301 300 299 297 295 296 298 300 301 297 289 278 270 264 258 253 253 258 262 263 266 271 275 277 275
246 247 248 249 250 251 252 253 254 255 256 258 259 261 262 263 264 265 266 267 268 269 270 272 273 275 276 277 278 279 280 282 283 284 286 287 288 290 291 292 294 295 297 298 299 300 301 302 303 304 304 305 305 306 305 305 305 304 303 301 299 299 298 295 294 296 299 300 299 293 283 271 266 264 261 260 264 266 263 257 255 259 271 279 276
247 248 250 251 252 253 254 254 255 256 257 259 260 261 263 264 265 266 267 268 269 270 270 271 273 274 276 277 279 280 281 282 283 285 286 287 289 290 291 292 294 295 296 297 298 299 300 301 302 303 303 304 305 305 305 305 305 304 303 301 300 301 300 299 299 303 305 303 299 288 272 261 261 264 263 262 261 254 244 241 245 250 257 267 269
247 249 250 252 253 254 255 256 257 258 259 260 261 262 264 265 265 266 267 268 269 270 271 272 274 275 276 278 279 280 281 282 283 285 286 288 289 290 291 293 294 295 295 296 297 298 299 300 301 302 303 304 305 305 306 306 306 306 305 304 305 307 309 308 308 310 310 307 297 279 260 255 255 253 253 252 247 238 232 238 246 250 252 258 262
248 249 250 251 253 254 256 257 258 259 260 261 262 262 263 265 266 267 268 269 270 271 272 273 274 275 277 278 279 280 281 283 284 285 286 288 289 290 291 293 293 294 294 295 296 297 298 299 300 301 302 303 304 304 305 305 306 306 306 307 309 312 315 316 315 314 313 311 298 266 248 252 252 241 239 244 244 240 241 244 247 250 257 267 273
249 249 250 251 253 254 255 256 257 259 260 261 262 263 264 265 266 268 269 270 271 272 273 274 275 275 276 278 279 280 282 283 284 286 287 288 288 290 291 291 292 293 294 295 296 296 297 298 299 300 301 301 302 303 303 304 304 305 306 307 309 312 314 317 316 313 312 312 303 266 240 243 245 240 243 248 247 244 247 248 249 255 267 278 281
251 251 252 252 253 254 256 257 258 259 260 262 263 264 265 266 267 268 269 270 271 272 273 274 275 276 277 278 279 280 282 283 284 285 286 287 288 289 290 290 291 292 293 294 295 296 296 297 298 299 300 301 301 302 303 303 303 304 305 307 309 310 311 314 314 310 308 310 301 269 241 238 238 235 239 245 246 250 254 251 249 256 268 270 271
252 252 253 254 255 256 257 258 259 260 261 263 264 265 266 267 268 269 270 271 272 273 274 275 276 277 278 279 280 281 282 283 283 284 285 286 287 288 289 290 291 292 293 293 294 295 296 297 298 299 299 300 301 301 302 302 303 304 305 307 308 308 308 310 311 309 310 312 302 268 243 240 238 234 235 240 243 248 252 248 244 252 264 265 264
251 252 253 254 255 256 257 258 260 261 262 263 264 265 266 267 268 269 270 271 272 273 274 275 276 277 278 279 280 281 282 282 283 284 285 286 287 288 289 290 291 292 292 293 294 295 295 296 297 298 299 299 300 300 301 302 303 304 305 305 306 307 306 306 305 303 307 313 305 271 243 239 240 239 239 241 240 240 242 240 241 251 259 259 256
251 252 253 254 255 256 257 258 259 260 261 263 264 265 266 267 268 269 270 271 272 273 274 275 276 277 278 278 280 280 281 282 283 284 285 286 287 288 289 290 290 291 292 293 294 295 295 296 297 297 298 298 299 300 301 302 302 303 303 303 304 305 305 304 303 300 301 307 303 279 251 241 240 242 241 236 230 229 236 243 253 259 260 257 253
251 252 253 255 256 257 258 258 259 260 261 262 263 264 265 266 267 268 269 270 271 272 273 274 275 276 277 278 279 280 281 282 283 284 285 285 286 287 288 289 290 291 291 292 293 294 294 295 296 296 297 298 298 299 300 300 300 301 301 301 302 302 303 304 304 303 301 300 298 286 263 248 243 245 244 236 225 222 231 241 247 251 252 251 251
253 253 254 255 256 257 258 259 260 261 261 262 262 263 264 266 267 268 269 270 271 272 273 274 275 276 277 278 279 280 281 282 282 283 284 285 286 287 288 289 290 290 291 292 292 293 294 294 295 296 296 297 297 298 298 298 298 298 298 299 299 300 302 303 303 303 302 297 289 280 269 257 250 248 245 237 228 226 230 234 234 235 238 240 243
254 255 256 256 257 258 259 260 261 261 262 263 264 265 266 267 267 269 269 271 272 273 274 275 276 277 277 278 279 280 281 282 282 283 284 285 286 287 288 289 289 290 290 291 292 292 293 294 295 295 296 296 296 296 296 296 297 297 297 298 298 298 300 301 302 303 304 301 291 281 276 268 257 250 245 239 233 230 232 233 233 232 233 234 236
Height
10984 10985 10986 10988 10989 10990 10991 10992 10994 10995 10997 10999 11000 11002 11004 11005 11007 11008 11009 11010 11011 11012 11013 11013 11013 11013 11014 11014 11014 11014 11014 11013 11013 11013 11012 11011 11010 11010 11010 11009 11008 11007 11005 11004 11002 11001 11000 10999 10997 10996 10995 10993 10991 10989 10988 10986 10984 10982 10980 10978 10975 10973 10970 10967 10964 10961 10958 10955 10953 10951 10948 10946 10944 10943 10941 10938 10936 10934 10933 10931 10929 10928 10926 10925 10923
10982 10984 10985 10986 10987 10988 10990 10990 10991 10992 10993 10996 10998 10999 11001 11003 11004 11006 11007 11008 11008 11009 11010 11010 11011 11011 11011 11011 11011 11012 11012 11011 11011 11011 11010 11009 11008 11007 11007 11007 11006 11005 11003 11002 11000 10999 10997 10996 10995 10993 10992 10991 10989 10987 10985 10983 10981 10979 10978 10976 10973 10970 10967 10964 10961 10958 10955 10951 10948 10946 10944 10942 10940 10938 10936 10934 10932 10930 10928 10927 10925 10924 10923 10922 10920
10980 10982 10982 10984 10985 10986 10987 10987 10988 10989 10991 10993 10995 10997 10999 11000 11002 11003 11004 11005 11006 11006 11007 11008 11008 11009 11009 11009 11009 11009 11009 11009 11009 11009 11008 11007 11006 11005 11004 11004 11003 11002 11001 11000 10998 10996 10995 10993 10992 10990 10989 10987 10986 10984 10981 10979 10977 10975 10973 10972 10969 10967 10963 10960 10957 10954 10951 10948 10944 10941 10939 10938 10936 10933 10931 10929 10927 10926 10924 10922 10921 10920 10920 10918 10917
10976 10978 10979 10981 10982 10982 10983 10984 10985 10987 10989 10991 10992 10994 10996 10998 10999 11000 11001 11002 11003 11004 11005 11005 11006 11006 11007 11007 11007 11007 11007 11007 11006 11006 11005 11004 11003 11002 11001 11001 11000 10999 10998 10997 10995 10993 10992 10990 10989 10987 10985 10984 10982 10980 10978 10975 10973 10971 10969 10967 10964 10962 10959 10956 10953 10949 10946 10943 10941 10938 10935 10933 10931 10929 10926 10924 10923 10922 10920 10919 10917 10917 10916 10915 10914
10972 10974 10976 10977 10977 10978 10980 10981 10983 10984 10986 10988 10990 10991 10993 10994 10996 10997 10998 10999 11000 11001 11002 11002 11003 11004 11004 11005 11004 11004 11005 11004 11004 11003 11003 11002 11001 10999 10999 10998 10997 10996 10994 10993 10991 10990 10989 10987 10986 10984 10982 10980 10978 10976 10973 10971 10968 10966 10964 10961 10959 10956 10954 10951 10949 10945 10942 10939 10936 10934 10932 10929 10927 10925 10923 10920 10918 10917 10917 10916 10914 10913 10912 10911 10910
10968 10970 10972 10973 10973 10974 10976 10977 10979 10981 10983 10985 10987 10988 10990 10991 10992 10994 10995 10996 10997 10998 10999 10999 11000 11001 11001 11002 11002 11002 11002 11002 11001 11000 11000 10999 10998 10997 10996 10995 10994 10992 10991 10989 10988 10986 10985 10983 10982 10980 10978 10976 10974 10972 10969 10966 10964 10961 10959 10956 10953 10951 10948 10946 10943 10941 10939 10935 10932 10930 10928 10926 10924 10921 10920 10917 10915 10913 10913 10912 10912 10911 10910 10909 10907
10963 10965 10967 10969 10969 10971 10972 10974 10977 10979 10981 10983 10984 10985 10986 10988 10990 10991 10992 10993 10994 10995 10995 10996 10997 10998 10998 10998 10999 10999 10999 10998 10998 10997 10997 10997 10996 10995 10993 10992 10990 10989 10987 10986 10984 10983 10981 10979 10977 10975 10974 10972 10969 10967 10965 10963 10959 10956 10954 10952 10949 10947 10944 10941 10938 10936 10935 10932 10929 10925 10923 10921 10920 10918 10916 10914 10912 10910 10910 10909 10908 10907 10907 10906 10905
10957 10960 10963 10964 10966 10967 10969 10972 10974 10976 10978 10980 10980 10981 10983 10985 10986 10987 10988 10989 10990 10991 10992 10993 10994 10995 10995 10995 10995 10995 10995 10995 10994 10994 10994 10994 10993 10992 10990 10988 10986 10985 10983 10982 10981 10979 10977 10974 10972 10970 10969 10967 10965 10963 10961 10959 10956 10952 10949 10947 10945 10943 10941 10938 10934 10931 10930 10928 10926 10922 10919 10917 10915 10914 10912 10911 10909 10908 10907 10907 10906 10905 10904 10903 10902
10951 10955 10957 10959 10962 10964 10966 10969 10971 10973 10975 10976 10977 10978 10980 10981 10983 10984 10985 10985 10986 10988 10988 10989 10991 10991 10991 10991 10991 10992 10992 10991 10992 10991 10991 10990 10989 10988 10986 10984 10982 10981 10979 10978 10976 10975 10973 10971 10968 10966 10964 10963 10961 10959 10957 10955 10953 10949 10945 10943 10941 10940 10937 10935 10931 10928 10925 10924 10922 10920 10916 10913 10911 10910 10909 10908 10906 10906 10905 10904 10903 10902 10901 10900 10899
10945 10948 10952 10954 10958 10960 10963 10965 10967 10969 10971 10972 10974 10975 10976 10978 10979 10980 10981 10982 10983 10984 10985 10986 10987 10987 10987 10987 10988 10988 10988 10988 10988 10988 10987 10986 10985 10983 10982 10980 10979 10977 10976 10974 10972 10970 10968 10966 10964 10962 10960 10958 10957 10955 10954 10952 10949 10946 10943 10940 10938 10936 10934 10931 10928 10925 10922 10920 10918 10916 10914 10911 10909 10907 10906 10905 10904 10904 10904 10903 10902 10900 10898 10896 10895
10940 10943 10946 10950 10953 10955 10958 10960 10963 10965 10966 10968 10970 10972 10973 10974 10975 10976 10977 10978 10980 10980 10981 10982 10983 10983 10983 10983 10984 10984 10984 10984 10984 10984 10984 10983 10981 10979 10977 10976 10975 10974 10972 10970 10969 10967 10964 10961 10959 10957 10956 10954 10953 10952 10950 10948 10946 10943 10940 10937 10935 10933 10930 10927 10924 10921 10919 10916 10913 10912 10910 10908 10906 10904 10903 10902 10902 10902 10902 10901 10900 10899 10897 10894 10891
10936 10938 10942 10945 10948 10951 10954 10956 10959 10960 10962 10965 10967 10969 10970 10970 10971 10972 10973 10975 10977 10976 10977 10978 10979 10979 10979 10979 10980 10980 10980 10980 10981 10981 10981 10980 10978 10975 10973 10972 10971 10970 10968 10966 10965 10963 10960 10957 10954 10953 10951 10950 10949 10948 10946 10944 10942 10939 10936 10934 10932 10929 10927 10924 10921 10918 10916 10913 10910 10907 10906 10904 10903 10902 10901 10900 10899 10899 10899 10899 10899 10897 10895 10893 10889
10933 10935 10938 10941 10944 10947 10950 10952 10954 10956 10959 10962 10964 10966 10967 10966 10967 10968 10970 10972 10973 10972 10973 10975 10975 10975 10975 10975 10976 10976 10976 10977 10977 10977 10977 10976 10974 10971 10968 10967 10966 10965 10963 10962 10960 10958 10956 10953 10951 10949 10947 10946 10945 10944 10942 10941 10939 10936 10933 10931 10928 10926 10923 10921 10918 10915 10913 10910 10907 10904 10903 10901 10900 10899 10899 10898 10897 10897 10897 10897 10896 10895 10893 10891 10888
10930 10932 10935 10938 10941 10943 10946 10948 10951 10953 10956 10958 10961 10962 10962 10962 10963 10965 10967 10968 10968 10969 10970 10970 10970 10970 10971 10971 10972 10972 10972 10973 10972 10972 10972 10972 10970 10968 10964 10962 10960 10959 10959 10957 10955 10953 10951 10949 10948 10946 10944 10943 10941 10940 10937 10936 10934 10931 10929 10927 10925 10923 10920 10918 10916 10912 10909 10906 10904 10902 10900 10900 10899 10898 10897 10896 10895 10895 10895 10894 10893 10892 10891 10889 10886
10927 10929 10931 10934 10937 10940 10942 10945 10947 10950 10952 10955 10957 10958 10958 10959 10960 10962 10963 10964 10964 10965 10966 10966 10966 10966 10967 10967 10967 10967 10968 10968 10967 10967 10967 10967 10966 10964 10961 10958 10955 10954 10953 10952 10950 10948 10947 10945 10944 10942 10940 10939 10938 10936 10933 10932 10929 10926 10924 10922 10920 10918 10916 10915 10913 10909 10906 10903 10901 10899 10898 10897 10897 10896 10895 10894 10893 10892 10892 10891 10890 10889 10888 10886 10883
10923 10926 10928 10931 10933 10936 10939 10941 10944 10946 10948 10950 10952 10952 10954 10955 10957 10958 10959 10960 10960 10961 10961 10962 10963 10963 10962 10962 10961 10962 10963 10963 10962 10962 10962 10962 10961 10959 10957 10954 10951 10950 10949 10947 10945 10943 10942 10941 10939 10938 10936 10935 10934 10932 10930 10928 10926 10923 10920 10917 10915 10914 10912 10911 10909 10905 10902 10900 10898 10897 10895 10894 10894 10893 10892 10890 10889 10889 10888 10888 10887 10886 10884 10882 10880
10920 10923 10925 10928 10930 10932 10935 10938 10940 10942 10944 10945 10946 10948 10950 10952 10953 10954 10955 10955 10955 10956 10956 10957 10958 10958 10958 10957 10956 10957 10957 10957 10957 10957 10957 10957 10956 10954 10953 10951 10948 10947 10945 10943 10941 10939 10938 10937 10936 10934 10932 10931 10930 10928 10926 10924 10923 10920 10918 10914 10912 10910 10909 10908 10906 10902 10899 10897 10895 10893 10892 10891 10890 10890 10889 10887 10886 10885 10885 10884 10883 10881 10880 10878 10876
10917 10920 10922 10924 10926 10928 10931 10933 10935 10937 10939 10940 10942 10944 10945 10947 10949 10950 10950 10950 10951 10951 10952 10952 10952 10953 10953 10953 10952 10951 10952 10952 10952 10951 10951 10950 10949 10948 10948 10946 10945 10944 10942 10940 10937 10935 10934 10933 10932 10931 10929 10927 10925 10923 10921 10920 10918 10917 10915 10911 10909 10907 10906 10905 10903 10900 10897 10894 10891 10891 10890 10889 10888 10887 10887 10885 10884 10883 10882 10880 10879 10877 10876 10874 10872
10913 10916 10918 10920 10922 10924 10926 10928 10930 10932 10934 10936 10937 10939 10941 10942 10944 10945 10946 10946 10947 10947 10947 10947 10947 10947 10947 10947 10947 10947 10947 10946 10946 10945 10945 10944 10943 10943 10942 10941 10940 10940 10939 10936 10934 10932 10930 10929 10928 10927 10925 10923 10920 10918 10917 10916 10914 10913 10911 10908 10905 10903 10902 10902 10900 10898 10896 10892 10889 10888 10888 10887 10887 10886 10885 10884 10882 10881 10879 10877 10876 10874 10872 10871 10868
10909 10912 10914 10915 10917 10919 10921 10923 10925 10928 10930 10931 10932 10934 10936 10938 10939 10940 10941 10942 10942 10942 10942 10941 10942 10942 10942 10942 10941 10941 10941 10941 10941 10940 10940 10940 10939 10939 10938 10936 10936 10935 10934 10932 10930 10929 10927 10926 10925 10923 10921 10919 10916 10914 10912 10911 10910 10909 10907 10905 10902 10899 10898 10898 10897 10895 10894 10891 10888 10886 10885 10885 10885 10884 10883 10881 10880 10878 10876 10874 10873 10870 10868 10867 10864
10903 10906 10908 10910 10912 10914 10915 10918 10920 10922 10924 10926 10928 10930 10931 10932 10934 10935 10936 10936 10937 10936 10936 10936 10936 10937 10936 10936 10936 10936 10936 10936 10936 10936 10936 10936 10936 10935 10934 10932 10932 10931 10929 10927 10926 10925 10925 10924 10922 10920 10918 10915 10912 10910 10907 10905 10905 10903 10901 10899 10897 10894 10893 10893 10892 10891 10891 10889 10887 10884 10882 10881 10881 10880 10880 10878 10876 10874 10872 10870 10868 10866 10864 10862 10860
10896 10899 10901 10903 10905 10908 10910 10913 10915 10917 10919 10921 10923 10924 10926 10927 10928 10929 10930 10930 10931 10931 10931 10931 10931 10931 10931 10931 10931 10931 10931 10930 10931 10931 10932 10932 10932 10931 10929 10928 10928 10927 10925 10923 10922 10921 10921 10920 10918 10916 10914 10911 10908 10906 10903 10900 10898 10896 10894 10892 10891 10889 10887 10886 10885 10885 10885 10884 10882 10880 10877 10876 10875 10874 10874 10873 10871 10869 10867 10865 10862 10861 10860 10857 10854
10889 10892 10894 10896 10899 10902 10905 10907 10909 10912 10914 10916 10918 10919 10920 10921 10922 10923 10924 10924 10925 10925 10925 10925 10925 10925 10925 10925 10926 10926 10926 10926 10926 10927 10927 10927 10926 10925 10924 10923 10923 10923 10921 10918 10917 10917 10917 10916 10913 10910 10907 10905 10904 10902 10899 10895 10892 10890 10887 10885 10884 10882 10881 10880 10879 10879 10879 10878 10876 10874 10871 10869 10869 10868 10866 10864 10863 10861 10860 10860 10858 10856 10854 10852 10849
10883 10886 10888 10891 10893 10896 10899 10901 10903 10905 10908 10910 10911 10913 10913 10914 10915 10916 10917 10918 10918 10919 10919 10920 10920 10919 10919 10920 10920 10920 10921 10921 10922 10922 10922 10921 10920 10918 10918 10918 10918 10918 10916 10913 10912 10913 10913 10911 10908 10904 10901 10899 10898 10897 10894 10890 10887 10885 10882 10880 10878 10877 10876 10875 10874 10873 10873 10871 10869 10867 10864 10862 10861 10861 10859 10857 10855 10853 10853 10853 10852 10850 10848 10847 10845
10877 10880 10883 10885 10887 10889 10892 10895 10897 10899 10901 10903 10904 10906 10907 10907 10908 10909 10911 10912 10912 10913 10914 10914 10914 10914 10915 10915 10915 10916 10916 10916 10917 10917 10916 10914 10913 10913 10913 10912 10912 10912 10911 10908 10907 10907 10908 10906 10902 10898 10896 10894 10892 10890 10887 10884 10882 10879 10876 10874 10872 10871 10870 10870 10869 10868 10866 10864 10861 10859 10858 10856 10854 10853 10851 10850 10849 10847 10845 10845 10846 10844 10843 10842 10841
10871 10873 10876 10878 10880 10883 10885 10888 10890 10892 10893 10895 10897 10899 10900 10900 10901 10903 10904 10905 10906 10907 10908 10908 10909 10909 10910 10910 10911 10911 10911 10911 10912 10912 10909 10907 10907 10907 10906 10905 10905 10905 10904 10902 10901 10902 10902 10900 10896 10894 10891 10889 10886 10884 10881 10879 10876 10873 10870 10868 10866 10865 10864 10864 10864 10863 10860 10858 10856 10854 10853 10851 10850 10848 10846 10844 10843 10841 10837 10837 10838 10839 10839 10838 10837
10864 10866 10869 10872 10874 10876 10878 10880 10882 10884 10886 10888 10890 10891 10893 10894 10895 10897 10898 10899 10900 10901 10902 10903 10903 10904 10905 10905 10906 10905 10906 10907 10907 10906 10904 10902 10902 10901 10900 10899 10898 10898 10897 10897 10896 10896 10895 10893 10891 10889 10887 10884 10881 10878 10875 10872 10869 10866 10863 10860 10859 10859 10857 10858 10860 10859 10856 10853 10853 10852 10850 10848 10846 10845 10842 10840 10838 10836 10833 10831 10832 10833 10834 10833 10831
10859 10860 10862 10865 10868 10870 10872 10873 10875 10878 10880 10881 10883 10885 10886 10888 10889 10891 10892 10893 10894 10895 10896 10897 10899 10899 10900 10900 10899 10899 10900 10901 10901 10901 10900 10898 10896 10895 10894 10893 10892 10891 10891 10891 10891 10890 10889 10887 10885 10883 10881 10879 10877 10873 10870 10867 10865 10862 10859 10855 10853 10851 10849 10849 10852 10853 10851 10850 10850 10849 10846 10843 10841 10840 10840 10839 10834 10830 10827 10826 10827 10828 10828 10827 10825
10854 10856 10857 10859 10861 10863 10865 10867 10869 10871 10872 10874 10877 10879 10880 10882 10883 10885 10886 10887 10888 10890 10891 10892 10893 10893 10894 10894 10894 10894 10894 10895 10895 10895 10894 10893 10891 10889 10888 10887 10886 10886 10885 10885 10885 10884 10883 10881 10879 10876 10874 10873 10871 10868 10865 10863 10860 10857 10855 10851 10848 10845 10843 10842 10842 10842 10841 10843 10845 10844 10839 10835 10832 10833 10835 10833 10828 10822 10820 10820 10821 10822 10822 10820 10817
10849 10851 10852 10853 10855 10856 10858 10861 10864 10866 10866 10868 10871 10873 10874 10876 10878 10880 10881 10881 10883 10884 10885 10886 10886 10887 10887 10888 10888 10888 10888 10888 10888 10888 10888 10887 10886 10884 10882 10880 10879 10879 10879 10879 10879 10878 10877 10875 10873 10870 10868 10866 10865 10862 10859 10857 10854 10851 10847 10844 10842 10839 10836 10834 10832 10831 10832 10834 10836 10835 10831 10826 10825 10827 10828 10825 10821 10817 10814 10814 10814 10816 10817 10814 10810
10843 10844 10846 10848 10849 10851 10853 10856 10858 10860 10861 10863 10865 10867 10868 10870 10873 10874 10875 10875 10876 10877 10878 10880 10880 10881 10881 10881 10881 10881 10882 10882 10882 10881 10881 10880 10880 10878 10876 10874 10872 10871 10871 10871 10871 10870 10869 10868 10866 10863 10861 10859 10857 10854 10852 10849 10847 10844 10841 10838 10834 10830 10828 10825 10822 10821 10823 10824 10824 10823 10821 10818 10819 10822 10822 10821 10817 10812 10807 10805 10805 10807 10808 10807 10803
10837 10838 10840 10843 10844 10845 10847 10850 10852 10853 10855 10858 10860 10861 10862 10864 10866 10867 10868 10869 10870 10871 10872 10873 10873 10874 10874 10874 10874 10874 10874 10874 10874 10874 10874 10873 10872 10871 10870 10868 10866 10865 10864 10864 10863 10862 10861 10860 10859 10857 10855 10852 10849 10846 10843 10841 10838 10836 10834 10832 10828 10824 10820 10818 10814 10812 10812 10813 10813 10813 10810 10808 10808 10809 10809 10809 10808 10803 10797 10795 10795 10796 10798 10800 10798
10830 10833 10835 10837 10838 10839 10841 10843 10844 10846 10849 10852 10854 10855 10856 10858 10860 10860 10861 10862 10863 10864 10865 10865 10866 10866 10867 10867 10867 10867 10867 10867 10867 10866 10866 10866 10865 10863 10862 10860 10859 10859 10857 10856 10855 10854 10852 10851 10850 10849 10847 10845 10842 10839 10836 10833 10830 10828 10826 10824 10821 10818 10814 10810 10807 10805 10804 10803 10803 10803 10800 10797 10796 10796 10794 10792 10790 10787 10784 10783 10784 10785 10788 10791 10790
10824 10826 10829 10830 10831 10832 10834 10836 10838 10839 10843 10846 10848 10849 10851 10852 10853 10853 10854 10855 10856 10857 10857 10857 10858 10858 10858 10858 10858 10859 10859 10859 10859 10858 10858 10857 10856 10855 10854 10853 10852 10851 10850 10848 10847 10845 10844 10843 10842 10841 10840 10838 10835 10832 10829 10826 10823 10821 10818 10816 10813 10811 10807 10803 10800 10797 10796 10794 10793 10792 10789 10786 10785 10785 10783 10780 10778 10777 10777 10776 10775 10776 10778 10779 10781
10817 10819 10820 10821 10823 10825 10828 10830 10831 10833 10836 10839 10841 10842 10843 10845 10846 10846 10847 10847 10848 10849 10849 10849 10849 10849 10849 10849 10850 10851 10851 10851 10850 10849 10849 10848 10847 10846 10846 10845 10844 10842 10841 10840 10838 10837 10836 10835 10834 10833 10831 10829 10827 10824 10822 10819 10816 10813 10811 10808 10806 10803 10799 10795 10791 10787 10785 10784 10783 10781 10779 10776 10774 10773 10772 10772 10772 10772 10772 10771 10769 10768 10769 10770 10773
10810 10811 10812 10814 10816 10819 10821 10823 10825 10826 10827 10830 10832 10834 10835 10837 10838 10839 10839 10840 10841 10841 10841 10841 10841 10841 10840 10841 10842 10842 10842 10841 10841 10840 10839 10838 10838 10837 10836 10836 10835 10833 10831 10830 10829 10828 10826 10825 10825 10824 10822 10820 10818 10815 10813 10810 10807 10804 10801 10799 10797 10794 10791 10787 10783 10779 10776 10775 10774 10771 10768 10767 10765 10764 10763 10764 10764 10764 10763 10763 10763 10763 10763 10764 10766
10802 10804 10806 10808 10810 10812 10814 10815 10817 10818 10820 10821 10823 10825 10827 10828 10830 10831 10832 10833 10833 10833 10832 10832 10832 10832 10833 10833 10833 10832 10832 10832 10831 10831 10829 10828 10828 10827 10827 10826 10825 10823 10821 10819 10818 10817 10816 10814 10814 10814 10812 10810 10808 10806 10804 10802 10799 10796 10793 10790 10787 10786 10782 10779 10775 10772 10770 10769 10767 10764 10760 10757 10756 10755 10755 10756 10757 10756 10756 10756 10756 10757 10757 10758 10760
10795 10797 10799 10800 10802 10803 10806 10808 10810 10811 10812 10813 10814 10816 10818 10819 10821 10822 10823 10824 10825 10824 10823 10822 10823 10823 10824 10824 10823 10822 10822 10822 10821 10820 10819 10818 10818 10818 10818 10816 10815 10812 10811 10809 10808 10807 10805 10804 10803 10803 10802 10800 10799 10797 10795 10793 10790 10787 10785 10782 10779 10778 10775 10771 10767 10763 10760 10759 10758 10755 10751 10748 10747 10746 10746 10747 10749 10749 10749 10749 10750 10751 10752 10752 10753
10786 10788 10790 10792 10794 10797 10799 10801 10802 10803 10803 10804 10805 10806 10808 10810 10810 10811 10813 10814 10815 10816 10816 10814 10814 10813 10813 10813 10812 10812 10811 10811 10811 10811 10809 10808 10808 10808 10808 10806 10804 10802 10800 10799 10798 10797 10795 10794 10793 10793 10791 10790 10789 10788 10786 10784 10782 10779 10776 10774 10772 10770 10766 10762 10758 10753 10750 10749 10748 10744 10741 10740 10738 10738 10738 10740 10740 10740 10740 10742 10743 10744 10745 10747 10748
10776 10779 10782 10785 10788 10790 10791 10792 10793 10793 10793 10795 10796 10798 10798 10799 10800 10801 10802 10803 10805 10807 10807 10805 10805 10804 10803 10802 10801 10801 10801 10801 10802 10801 10799 10798 10798 10798 10797 10796 10795 10793 10791 10789 10788 10787 10785 10784 10784 10783 10782 10780 10780 10778 10776 10774 10773 10771 10767 10764 10763 10762 10758 10752 10748 10744 10742 10740 10738 10735 10733 10732 10731 10730 10731 10732 10732 10731 10731 10733 10735 10737 10739 10742 10743
10768 10771 10774 10777 10778 10779 10781 10782 10782 10783 10784 10786 10788 10788 10788 10789 10790 10790 10791 10793 10794 10795 10795 10795 10795 10795 10794 10792 10791 10791 10791 10792 10791 10790 10789 10789 10787 10786 10785 10785 10785 10783 10781 10779 10778 10776 10775 10774 10773 10773 10772 10770 10769 10767 10765 10764 10763 10761 10758 10755 10753 10751 10748 10743 10738 10735 10733 10730 10728 10726 10725 10725 10724 10723 10723 10723 10724 10724 10725 10727 10728 10729 10732 10735 10735
10760 10763 10765 10767 10768 10769 10770 10771 10772 10773 10774 10776 10777 10778 10777 10777 10778 10778 10779 10781 10783 10784 10784 10784 10785 10785 10784 10783 10781 10781 10781 10782 10782 10781 10780 10778 10776 10774 10774 10774 10773 10772 10770 10768 10767 10766 10764 10763 10763 10762 10761 10759 10757 10755 10753 10751 10750 10748 10746 10743 10741 10739 10736 10732 10729 10725 10723 10721 10719 10718 10719 10719 10718 10718 10718 10717 10717 10718 10720 10721 10721 10722 10723 10725 10726
10751 10753 10756 10758 10758 10759 10760 10761 10761 10762 10763 10764 10765 10766 10765 10766 10766 10767 10768 10770 10772 10773 10773 10773 10774 10775 10774 10773 10771 10770 10769 10770 10771 10770 10769 10767 10765 10764 10763 10763 10762 10760 10758 10757 10757 10755 10753 10752 10752 10752 10751 10749 10747 10745 10743 10741 10738 10736 10734 10732 10729 10727 10727 10725 10721 10717 10713 10711 10711 10712 10713 10713 10712 10713 10713 10713 10713 10714 10715 10714 10715 10715 10716 10716 10718
10740 10743 10746 10747 10748 10748 10748 10749 10750 10750 10751 10752 10753 10754 10755 10755 10756 10757 10758 10759 10760 10761 10761 10761 10762 10763 10763 10762 10762 10761 10759 10759 10758 10758 10757 10756 10755 10754 10753 10752 10751 10749 10747 10746 10746 10744 10742 10741 10741 10742 10740 10738 10736 10735 10733 10731 10728 10726 10725 10722 10719 10717 10718 10718 10717 10713 10709 10706 10704 10705 10707 10708 10708 10708 10708 10708 10708 10709 10709 10708 10708 10710 10710 10711 10712
10728 10731 10734 10736 10737 10737 10737 10737 10738 10739 10740 10741 10742 10743 10744 10744 10745 10746 10747 10748 10748 10749 10749 10749 10749 10750 10751 10751 10751 10751 10750 10749 10748 10747 10746 10745 10744 10744 10743 10741 10740 10738 10736 10735 10734 10732 10730 10729 10729 10730 10728 10727 10725 10723 10722 10721 10718 10715 10713 10712 10710 10709 10709 10710 10710 10708 10706 10702 10700 10699 10700 10702 10702 10702 10702 10702 10703 10703 10702 10702 10702 10704 10705 10707 10709
10717 10719 10722 10724 10726 10726 10725 10726 10728 10729 10729 10730 10730 10731 10732 10732 10733 10734 10735 10736 10737 10737 10737 10737 10737 10738 10738 10738 10739 10739 10739 10738 10737 10736 10735 10734 10733 10733 10732 10730 10728 10726 10724 10723 10722 10721 10719 10717 10717 10716 10715 10714 10713 10712 10711 10709 10706 10703 10701 10700 10700 10700 10700 10700 10701 10700 10698 10696 10694 10692 10693 10694 10695 10695 10694 10695 10696 10695 10694 10694 10696 10698 10700 10703 10705
10707 10708 10710 10712 10714 10715 10715 10716 10718 10719 10719 10719 10719 10720 10720 10720 10721 10722 10723 10724 10724 10725 10725 10725 10725 10725 10725 10725 10726 10726 10727 10726 10725 10724 10724 10723 10722 10721 10720 10718 10716 10714 10711 10709 10709 10708 10707 10706 10705 10704 10703 10702 10701 10700 10698 10697 10694 10692 10689 10687 10688 10689 10689 10690 10691 10690 10689 10687 10686 10686 10686 10687 10687 10687 10687 10687 10687 10686 10686 10687 10688 10690 10693 10697 10699
10698 10698 10699 10701 10703 10704 10705 10706 10707 10708 10708 10709 10709 10709 10709 10710 10710 10711 10711 10712 10712 10713 10713 10713 10714 10713 10713 10714 10714 10714 10714 10713 10712 10712 10711 10711 10710 10710 10708 10706 10704 10701 10698 10697 10695 10694 10693 10693 10692 10691 10690 10689 10688 10687 10685 10683 10682 10681 10678 10676 10675 10676 10677 10678 10679 10679 10679 10678 10678 10678 10679 10679 10678 10678 10678 10678 10677 10677 10678 10680 10681 10682 10684 10688 10690
10687 10688 10689 10690 10692 10693 10694 10695 10696 10697 10698 10698 10698 10698 10699 10699 10700 10700 10701 10701 10701 10702 10702 10702 10702 10702 10702 10702 10702 10702 10701 10701 10700 10699 10698 10698 10698 10697 10696 10694 10692 10689 10686 10685 10683 10682 10681 10679 10679 10678 10677 10676 10675 10674 10672 10671 10670 10670 10669 10667 10665 10664 10665 10665 10666 10667 10668 10669 10669 10669 10670 10671 10670 10669 10669 10669 10667 10666 10667 10669 10672 10674 10677 10679 10679
10676 10677 10679 10680 10681 10682 10682 10683 10683 10684 10685 10686 10687 10687 10688 10688 10689 10689 10690 10690 10690 10690 10690 10690 10690 10690 10689 10689 10689 10689 10688 10688 10687 10686 10685 10685 10685 10684 10683 10681 10678 10676 10674 10673 10671 10670 10668 10666 10665 10664 10663 10662 10661 10660 10660 10659 10659 10658 10658 10658 10656 10654 10653 10653 10653 10654 10657 10659 10659 10659 10660 10661 10661 10661 10661 10660 10658 10656 10656 10657 10658 10661 10664 10666 10667
10662 10664 10666 10667 10669 10670 10670 10670 10671 10671 10672 10673 10674 10675 10676 10677 10677 10678 10678 10678 10678 10678 10678 10678 10677 10677 10676 10676 10676 10675 10674 10674 10673 10672 10672 10672 10672 10671 10670 10667 10664 10662 10660 10659 10658 10657 10656 10653 10651 10650 10649 10648 10647 10647 10647 10647 10646 10645 10645 10645 10645 10644 10642 10641 10641 10641 10643 10646 10648 10650 10651 10651 10650 10650 10650 10650 10649 10648 10647 10648 10648 10649 10649 10650 10651